Location: ?????
(42.2640°N, 43.4211°E)
Time: 02:34:20
(UTC+00:00)

Cosmos 1726 Rocket - Pass Details

Date: 07 August 2020
Orbit: 601 x 631 km, 82.5° (Epoch: 23 September)

Event Time Altitude Azimuth Distance (km) Brightness Sun altitude
Rises 01:18:48 0° 185° (S) 2,896 6.6 -8.5°
Reaches altitude 10° 01:21:01 10° 184° (S) 1,997 5.8 -8.2°
Maximum altitude 01:25:27 85° 98° (E) 639 3.7 -7.5°
Drops below altitude 10° 01:29:56 10° 9° (N) 2,020 6.8 -6.7°
Sets 01:32:11 0° 9° (N) 2,933 7.6 -6.4°
